Location: Ferchesar
(52.6477°N, 12.4298°E)
Time: 09:24:43
(UTC+01:00)

Vanguard 1 - Pass Details

Date: 13 December 2021
Orbit: 652 x 3830 km, 34.2° (Epoch: 16 January)

Event Time Altitude Azimuth Distance (km) Brightness Sun altitude
Exits shadow 02:47:55 32° 174° (S) 5,013 13.3 -47.2°
Drops below altitude 10° 02:58:10 10° 146° (SE) 5,998 14.1 -45.9°
Sets 03:02:37 0° 139° (SE) 6,650 14.5 -45.2°
